Tracking 31027 objects as of 19-Jul-2025
HD Live streaming from Space Station
objects crossing your sky now

NOAA 16 DEB

Track NOAA 16 DEB now!
10-day predictions


NORAD ID: 41416
Int'l Code: 2000-055KV
Perigee: 758.8 km
Apogee: 798.5 km
Inclination: 98.8 °
Period: 100.3 minutes
Semi major axis: 7149 km
RCS: Unknown
Launch date: September 21, 2000
Source: United States (US)
Launch site: AIR FORCE WESTERN TEST RANGE (AFWTR)

Note: This is SATELLITE DEBRIS
Your satellite tracking list
FLOCK 3P 17
Track 1 satellite(s)




NASA's NSSDC Master Catalog

Two Line Element Set (TLE):
1 41416U 00055KV  25198.54219606  .00003969  00000-0  13731-2 0  9998
2 41416  98.7678 302.0174 0027791  15.0252 345.1752 14.36073673486703
Source of the keplerian elements: AFSPC